SWA2288 KHOU-KATL

Flight info

Callsign SWA2288
Flight time 1h 27m
Altitude 35000
Route ELOCO6 LLA HRV PAYTN SHYRE HOBTT3
Aircraft B737/M-SADE2E3GIJ4RWZ/LB1D1

Departure

Time 2026-05-07 15:59
Airport William P. Hobby Airport (KHOU)

Arrival

Time 2026-05-07 17:26
Airport Hartsfield Jackson Atlanta International Airport (KATL)
Time Latitude Longitude Altitude Speed Heading
2026-05-07 15:45 29.65202 -95.27812 51 ft 0 kts 359°
2026-05-07 15:53 29.65190 -95.27812 50 ft 2 kts 359°
2026-05-07 15:53 29.65174 -95.27811 48 ft 2 kts 359°
2026-05-07 15:53 29.65158 -95.27811 51 ft 2 kts 358°
2026-05-07 15:54 29.65142 -95.27808 48 ft 2 kts 323°
2026-05-07 15:54 29.65134 -95.27797 48 ft 1 kts 275°
2026-05-07 15:54 29.65133 -95.27794 51 ft 0 kts 273°
2026-05-07 15:55 29.65135 -95.27824 51 ft 8 kts 273°
2026-05-07 15:55 29.65154 -95.27890 51 ft 9 kts 310°
2026-05-07 15:56 29.65203 -95.27945 49 ft 12 kts 316°
2026-05-07 15:56 29.65270 -95.28022 52 ft 15 kts 314°
2026-05-07 15:56 29.65340 -95.28119 51 ft 17 kts 290°
2026-05-07 15:56 29.65316 -95.28244 52 ft 16 kts 250°
2026-05-07 15:57 29.65268 -95.28360 53 ft 17 kts 225°
2026-05-07 15:57 29.65223 -95.28456 51 ft 0 kts 271°
2026-05-07 15:57 29.65224 -95.28495 50 ft 16 kts 270°
2026-05-07 15:57 29.65147 -95.28563 51 ft 16 kts 180°
2026-05-07 15:58 29.65059 -95.28508 51 ft 14 kts 134°
2026-05-07 15:58 29.65034 -95.28478 51 ft 0 kts 133°
2026-05-07 15:58 29.64904 -95.28323 52 ft 74 kts 134°
2026-05-07 15:58 29.64325 -95.27641 50 ft 160 kts 133°
2026-05-07 15:59 29.63518 -95.26557 711 ft 182 kts 113°
2026-05-07 15:59 29.63082 -95.25145 1686 ft 197 kts 96°
2026-05-07 15:59 29.62824 -95.23544 2547 ft 205 kts 96°
2026-05-07 15:59 29.62570 -95.21972 3702 ft 210 kts 101°
2026-05-07 16:00 29.62213 -95.20201 4262 ft 240 kts 103°
2026-05-07 16:00 29.61822 -95.18319 5159 ft 251 kts 104°
2026-05-07 16:00 29.61414 -95.16309 6050 ft 264 kts 103°
2026-05-07 16:00 29.60998 -95.14198 6918 ft 276 kts 104°
2026-05-07 16:01 29.60579 -95.12012 7807 ft 286 kts 103°
2026-05-07 16:01 29.60149 -95.09739 8686 ft 296 kts 103°
2026-05-07 16:01 29.59709 -95.07392 9585 ft 305 kts 103°
2026-05-07 16:01 29.59255 -95.04967 10346 ft 320 kts 104°
2026-05-07 16:02 29.58932 -95.02358 10816 ft 343 kts 91°
2026-05-07 16:02 29.59235 -94.99566 11331 ft 363 kts 75°
2026-05-07 16:02 29.59979 -94.96783 11853 ft 379 kts 71°
2026-05-07 16:02 29.60845 -94.93881 12547 ft 389 kts 71°
2026-05-07 16:03 29.61721 -94.90898 13266 ft 398 kts 72°
2026-05-07 16:03 29.62579 -94.87850 13966 ft 405 kts 73°
2026-05-07 16:03 29.63435 -94.84739 14618 ft 412 kts 73°
2026-05-07 16:03 29.64402 -94.81608 15259 ft 419 kts 70°
2026-05-07 16:04 29.65512 -94.78490 15932 ft 425 kts 68°
2026-05-07 16:04 29.66681 -94.75346 16612 ft 430 kts 68°
2026-05-07 16:04 29.67859 -94.72180 17309 ft 434 kts 69°
2026-05-07 16:04 29.69041 -94.68954 18025 ft 438 kts 69°
2026-05-07 16:05 29.70217 -94.65696 18696 ft 442 kts 69°
2026-05-07 16:05 29.71390 -94.62422 19334 ft 445 kts 69°
2026-05-07 16:05 29.72571 -94.59115 19982 ft 447 kts 69°
2026-05-07 16:05 29.73507 -94.55709 20632 ft 448 kts 80°
2026-05-07 16:06 29.73950 -94.52161 21315 ft 447 kts 89°
2026-05-07 16:06 29.73925 -94.48593 21996 ft 445 kts 99°
2026-05-07 16:06 29.73505 -94.45078 22715 ft 444 kts 103°
2026-05-07 16:06 29.73012 -94.41557 23436 ft 446 kts 102°
2026-05-07 16:07 29.72542 -94.38033 24077 ft 447 kts 102°
2026-05-07 16:07 29.72100 -94.34488 24702 ft 448 kts 101°
2026-05-07 16:07 29.71688 -94.30931 25334 ft 449 kts 101°
2026-05-07 16:07 29.71294 -94.27362 25980 ft 450 kts 101°
2026-05-07 16:08 29.70910 -94.23834 26626 ft 451 kts 101°
2026-05-07 16:08 29.70514 -94.20215 27321 ft 450 kts 101°
2026-05-07 16:08 29.70118 -94.16644 28013 ft 450 kts 101°
2026-05-07 16:08 29.69724 -94.13123 28700 ft 450 kts 102°
2026-05-07 16:09 29.69324 -94.09561 29421 ft 448 kts 102°
2026-05-07 16:09 29.68917 -94.05963 30163 ft 447 kts 102°
2026-05-07 16:09 29.68595 -94.02459 30780 ft 447 kts 97°
2026-05-07 16:09 29.68496 -93.98840 31435 ft 446 kts 94°
2026-05-07 16:10 29.68476 -93.95286 32089 ft 444 kts 94°
2026-05-07 16:10 29.68482 -93.91752 32750 ft 440 kts 93°
2026-05-07 16:10 29.68488 -93.88252 33434 ft 436 kts 94°
2026-05-07 16:10 29.68488 -93.87127 33658 ft 434 kts 94°
2026-05-07 16:11 29.68482 -93.83999 34254 ft 428 kts 94°
2026-05-07 16:11 29.68465 -93.80602 34839 ft 423 kts 94°
2026-05-07 16:11 29.68438 -93.77206 35072 ft 429 kts 95°
2026-05-07 16:11 29.68402 -93.73726 35071 ft 441 kts 95°
2026-05-07 16:12 29.68361 -93.70157 35098 ft 452 kts 94°
2026-05-07 16:12 29.68297 -93.64741 35097 ft 469 kts 94°
2026-05-07 16:13 29.68215 -93.57527 35086 ft 489 kts 94°
2026-05-07 16:13 29.68123 -93.49554 35083 ft 508 kts 94°
2026-05-07 16:14 29.68204 -93.41298 35065 ft 527 kts 85°
2026-05-07 16:14 29.70060 -93.33041 35083 ft 541 kts 68°
2026-05-07 16:15 29.72961 -93.24958 35068 ft 549 kts 66°
2026-05-07 16:15 29.75906 -93.16870 35067 ft 547 kts 66°
2026-05-07 16:16 29.78778 -93.08771 35071 ft 546 kts 67°
2026-05-07 16:16 29.81600 -93.00665 35073 ft 545 kts 67°
2026-05-07 16:17 29.84410 -92.92553 35078 ft 545 kts 67°
2026-05-07 16:17 29.87195 -92.84506 35082 ft 545 kts 67°
2026-05-07 16:18 29.89998 -92.76402 35080 ft 545 kts 67°
2026-05-07 16:18 29.92800 -92.68283 35078 ft 545 kts 67°
2026-05-07 16:19 29.95597 -92.60160 35072 ft 545 kts 68°
2026-05-07 16:19 29.98392 -92.52023 35071 ft 546 kts 68°
2026-05-07 16:20 30.01178 -92.43890 35070 ft 546 kts 68°
2026-05-07 16:20 30.03972 -92.35718 35055 ft 547 kts 68°
2026-05-07 16:21 30.06756 -92.27554 35050 ft 547 kts 68°
2026-05-07 16:21 30.09532 -92.19393 35047 ft 547 kts 68°
2026-05-07 16:22 30.12310 -92.11209 35055 ft 547 kts 68°
2026-05-07 16:22 30.15083 -92.03019 35051 ft 547 kts 68°
2026-05-07 16:23 30.17844 -91.94845 35058 ft 547 kts 68°
2026-05-07 16:23 30.20606 -91.86649 35054 ft 547 kts 68°
2026-05-07 16:24 30.23364 -91.78445 35054 ft 547 kts 68°
2026-05-07 16:24 30.26115 -91.70244 35052 ft 547 kts 68°
2026-05-07 16:25 30.28866 -91.62020 35055 ft 548 kts 68°
2026-05-07 16:25 30.31611 -91.53795 35056 ft 548 kts 68°
2026-05-07 16:26 30.34348 -91.45574 35056 ft 547 kts 68°
2026-05-07 16:26 30.37079 -91.37351 35060 ft 547 kts 68°
2026-05-07 16:27 30.39806 -91.29118 35057 ft 547 kts 68°
2026-05-07 16:27 30.42526 -91.20888 35057 ft 547 kts 68°
2026-05-07 16:28 30.45244 -91.12644 35060 ft 548 kts 68°
2026-05-07 16:28 30.47956 -91.04397 35052 ft 547 kts 68°
2026-05-07 16:29 30.50634 -90.96233 35054 ft 547 kts 68°
2026-05-07 16:29 30.53357 -90.87914 35057 ft 548 kts 68°
2026-05-07 16:30 30.56056 -90.79645 35057 ft 548 kts 68°
2026-05-07 16:30 30.58734 -90.71422 35057 ft 548 kts 68°
2026-05-07 16:31 30.61423 -90.63142 35056 ft 548 kts 68°
2026-05-07 16:31 30.64110 -90.54850 35061 ft 548 kts 68°
2026-05-07 16:32 30.66790 -90.46557 35060 ft 549 kts 68°
2026-05-07 16:32 30.69465 -90.38257 35054 ft 549 kts 68°
2026-05-07 16:33 30.72136 -90.29950 35056 ft 549 kts 68°
2026-05-07 16:33 30.74368 -90.22994 35049 ft 549 kts 68°
2026-05-07 16:34 30.77031 -90.14674 35058 ft 549 kts 68°
2026-05-07 16:34 30.79686 -90.06357 35061 ft 549 kts 68°
2026-05-07 16:35 30.82337 -89.98031 35068 ft 549 kts 68°
2026-05-07 16:35 30.84983 -89.89701 35076 ft 549 kts 68°
2026-05-07 16:36 30.87627 -89.81354 35076 ft 550 kts 68°
2026-05-07 16:36 30.90269 -89.72995 35067 ft 550 kts 68°
2026-05-07 16:37 30.92904 -89.64632 35054 ft 550 kts 68°
2026-05-07 16:37 30.95516 -89.56324 35048 ft 550 kts 68°
2026-05-07 16:38 30.98143 -89.47945 35040 ft 550 kts 68°
2026-05-07 16:38 31.00763 -89.39564 35046 ft 550 kts 68°
2026-05-07 16:39 31.03376 -89.31189 35054 ft 550 kts 68°
2026-05-07 16:39 31.05984 -89.22805 35051 ft 550 kts 68°
2026-05-07 16:40 31.08586 -89.14419 35052 ft 549 kts 68°
2026-05-07 16:40 31.11179 -89.06039 35053 ft 549 kts 68°
2026-05-07 16:41 31.13768 -88.97651 35047 ft 549 kts 68°
2026-05-07 16:41 31.16348 -88.89268 35040 ft 549 kts 68°
2026-05-07 16:42 31.18925 -88.80873 35044 ft 549 kts 68°
2026-05-07 16:42 31.21498 -88.72470 35043 ft 550 kts 68°
2026-05-07 16:43 31.24070 -88.64048 35048 ft 550 kts 68°
2026-05-07 16:43 31.26635 -88.55624 35043 ft 550 kts 68°
2026-05-07 16:44 31.29195 -88.47198 35046 ft 550 kts 68°
2026-05-07 16:44 31.31752 -88.38754 35037 ft 551 kts 68°
2026-05-07 16:45 31.34306 -88.30300 35033 ft 551 kts 68°
2026-05-07 16:45 31.36854 -88.21842 35038 ft 552 kts 68°
2026-05-07 16:46 31.39403 -88.13360 35022 ft 552 kts 68°
2026-05-07 16:46 31.41943 -88.04879 35016 ft 553 kts 68°
2026-05-07 16:47 31.44480 -87.96390 35009 ft 552 kts 68°
2026-05-07 16:47 31.47272 -87.88028 34997 ft 548 kts 58°
2026-05-07 16:48 31.51453 -87.80703 35000 ft 539 kts 47°
2026-05-07 16:48 31.55903 -87.73625 34979 ft 541 kts 49°
2026-05-07 16:49 31.60237 -87.66413 34973 ft 541 kts 49°
2026-05-07 16:49 31.64549 -87.59166 34974 ft 541 kts 49°
2026-05-07 16:50 31.68810 -87.52027 34968 ft 541 kts 49°
2026-05-07 16:50 31.73133 -87.44801 34963 ft 542 kts 49°
2026-05-07 16:51 31.77462 -87.37556 34964 ft 542 kts 49°
2026-05-07 16:51 31.81791 -87.30296 34946 ft 542 kts 49°
2026-05-07 16:52 31.86112 -87.23032 34942 ft 542 kts 49°
2026-05-07 16:52 31.90436 -87.15749 34936 ft 542 kts 49°
2026-05-07 16:53 31.94749 -87.08472 34924 ft 543 kts 49°
2026-05-07 16:53 31.99063 -87.01178 34922 ft 543 kts 49°
2026-05-07 16:54 32.03372 -86.93878 34940 ft 542 kts 49°
2026-05-07 16:54 32.07673 -86.86580 34951 ft 542 kts 49°
2026-05-07 16:55 32.11938 -86.79327 34950 ft 542 kts 49°
2026-05-07 16:55 32.16250 -86.71982 34941 ft 541 kts 49°
2026-05-07 16:56 32.20529 -86.64678 34965 ft 541 kts 49°
2026-05-07 16:56 32.26904 -86.53769 35014 ft 540 kts 49°
2026-05-07 16:57 32.31197 -86.46406 35016 ft 540 kts 49°
2026-05-07 16:57 32.35449 -86.39110 34987 ft 539 kts 49°
2026-05-07 16:58 32.39705 -86.31805 34993 ft 539 kts 49°
2026-05-07 16:58 32.43949 -86.24501 34987 ft 538 kts 49°
2026-05-07 16:59 32.48174 -86.17184 34987 ft 538 kts 50°
2026-05-07 16:59 32.52332 -86.09957 34983 ft 538 kts 49°
2026-05-07 17:00 32.56548 -86.02624 34976 ft 539 kts 49°
2026-05-07 17:00 32.60759 -85.95294 34955 ft 534 kts 49°
2026-05-07 17:01 32.62821 -85.91695 34831 ft 522 kts 49°
2026-05-07 17:01 32.64866 -85.88132 34130 ft 523 kts 49°
2026-05-07 17:01 32.66912 -85.84572 33352 ft 523 kts 49°
2026-05-07 17:01 32.68969 -85.80992 32543 ft 524 kts 49°
2026-05-07 17:02 32.71019 -85.77418 31699 ft 524 kts 50°
2026-05-07 17:02 32.73057 -85.73856 31043 ft 520 kts 50°
2026-05-07 17:02 32.75072 -85.70324 30448 ft 515 kts 51°
2026-05-07 17:02 32.77076 -85.66809 29809 ft 510 kts 51°
2026-05-07 17:03 32.79056 -85.63334 29102 ft 504 kts 51°
2026-05-07 17:03 32.80985 -85.59940 28642 ft 488 kts 51°
2026-05-07 17:03 32.82857 -85.56640 28386 ft 473 kts 50°
2026-05-07 17:03 32.84684 -85.53425 28118 ft 469 kts 50°
2026-05-07 17:04 32.86535 -85.50180 27857 ft 477 kts 50°
2026-05-07 17:04 32.88397 -85.46914 27214 ft 476 kts 50°
2026-05-07 17:04 32.90240 -85.43668 26584 ft 473 kts 50°
2026-05-07 17:04 32.92074 -85.40432 25902 ft 471 kts 50°
2026-05-07 17:05 32.93904 -85.37198 25223 ft 470 kts 50°
2026-05-07 17:05 32.95727 -85.33975 24552 ft 469 kts 50°
2026-05-07 17:05 32.97547 -85.30755 23874 ft 468 kts 50°
2026-05-07 17:05 32.99353 -85.27555 23090 ft 460 kts 51°
2026-05-07 17:06 33.01111 -85.24433 22374 ft 447 kts 50°
2026-05-07 17:06 33.02861 -85.21414 21719 ft 439 kts 46°
2026-05-07 17:06 33.04829 -85.18694 21201 ft 429 kts 40°
2026-05-07 17:06 33.06860 -85.16144 20725 ft 422 kts 39°
2026-05-07 17:07 33.08897 -85.13630 20072 ft 422 kts 39°
2026-05-07 17:07 33.10927 -85.11092 19371 ft 423 kts 40°
2026-05-07 17:07 33.12935 -85.08529 18676 ft 423 kts 41°
2026-05-07 17:07 33.14924 -85.05953 17958 ft 419 kts 41°
2026-05-07 17:08 33.16874 -85.03413 17179 ft 411 kts 41°
2026-05-07 17:08 33.18784 -85.00923 16419 ft 402 kts 41°
2026-05-07 17:08 33.20649 -84.98493 15683 ft 394 kts 42°
2026-05-07 17:08 33.22491 -84.96095 14991 ft 389 kts 42°
2026-05-07 17:09 33.24314 -84.93724 14457 ft 387 kts 42°
2026-05-07 17:09 33.26129 -84.91363 13887 ft 387 kts 43°
2026-05-07 17:09 33.27928 -84.89019 13262 ft 386 kts 43°
2026-05-07 17:09 33.29734 -84.86662 12679 ft 383 kts 43°
2026-05-07 17:10 33.31569 -84.84318 12214 ft 376 kts 39°
2026-05-07 17:10 33.33663 -84.82580 12077 ft 364 kts 22°
2026-05-07 17:10 33.35920 -84.81183 12055 ft 365 kts 20°
2026-05-07 17:10 33.38150 -84.79849 12025 ft 363 kts 20°
2026-05-07 17:11 33.40402 -84.78502 12013 ft 361 kts 20°
2026-05-07 17:11 33.42645 -84.77149 12009 ft 362 kts 20°
2026-05-07 17:11 33.44893 -84.75780 12006 ft 363 kts 21°
2026-05-07 17:11 33.47140 -84.74401 12009 ft 362 kts 21°
2026-05-07 17:12 33.49404 -84.73004 11998 ft 362 kts 21°
2026-05-07 17:12 33.51613 -84.71637 11984 ft 362 kts 21°
2026-05-07 17:12 33.53847 -84.70251 11980 ft 358 kts 21°
2026-05-07 17:12 33.56012 -84.68902 11963 ft 341 kts 20°
2026-05-07 17:13 33.58059 -84.67624 11963 ft 326 kts 20°
2026-05-07 17:13 33.60035 -84.66393 11901 ft 315 kts 20°
2026-05-07 17:13 33.61982 -84.65189 11648 ft 313 kts 20°
2026-05-07 17:13 33.63911 -84.63995 11366 ft 310 kts 20°
2026-05-07 17:14 33.65810 -84.62817 11087 ft 306 kts 20°
2026-05-07 17:14 33.67700 -84.61642 10811 ft 305 kts 20°
2026-05-07 17:14 33.69584 -84.60471 10503 ft 305 kts 20°
2026-05-07 17:14 33.71440 -84.59206 10175 ft 311 kts 33°
2026-05-07 17:15 33.72830 -84.57186 9834 ft 321 kts 63°
2026-05-07 17:15 33.73366 -84.54608 9495 ft 319 kts 89°
2026-05-07 17:15 33.73372 -84.51963 9174 ft 317 kts 92°
2026-05-07 17:15 33.73333 -84.49311 8817 ft 316 kts 92°
2026-05-07 17:16 33.73309 -84.46669 8414 ft 316 kts 91°
2026-05-07 17:16 33.73299 -84.44034 8011 ft 315 kts 91°
2026-05-07 17:16 33.73295 -84.41425 7635 ft 313 kts 91°
2026-05-07 17:16 33.73295 -84.38803 7249 ft 312 kts 91°
2026-05-07 17:17 33.73296 -84.36224 6849 ft 305 kts 90°
2026-05-07 17:17 33.73296 -84.33703 6467 ft 298 kts 90°
2026-05-07 17:17 33.73295 -84.31249 6083 ft 297 kts 91°
2026-05-07 17:17 33.73295 -84.28733 5694 ft 297 kts 90°
2026-05-07 17:18 33.73298 -84.26260 5295 ft 293 kts 90°
2026-05-07 17:18 33.73302 -84.23853 5027 ft 282 kts 90°
2026-05-07 17:18 33.73304 -84.21507 5008 ft 282 kts 90°
2026-05-07 17:18 33.73306 -84.19152 4999 ft 279 kts 90°
2026-05-07 17:19 33.73211 -84.16843 4960 ft 276 kts 104°
2026-05-07 17:19 33.72774 -84.15420 4941 ft 273 kts 122°
2026-05-07 17:19 33.70985 -84.13413 4832 ft 259 kts 160°
2026-05-07 17:19 33.69304 -84.12841 4555 ft 245 kts 173°
2026-05-07 17:20 33.68206 -84.12626 4320 ft 236 kts 183°
2026-05-07 17:20 33.66663 -84.13059 4036 ft 221 kts 216°
2026-05-07 17:20 33.65658 -84.14297 4016 ft 202 kts 237°
2026-05-07 17:20 33.64892 -84.15682 3982 ft 196 kts 242°
2026-05-07 17:21 33.64626 -84.17210 3984 ft 189 kts 275°
2026-05-07 17:21 33.64737 -84.18814 3984 ft 195 kts 271°
2026-05-07 17:21 33.64786 -84.20486 3987 ft 199 kts 270°
2026-05-07 17:21 33.64846 -84.22128 3818 ft 200 kts 270°
2026-05-07 17:22 33.64891 -84.23756 3600 ft 188 kts 270°
2026-05-07 17:22 33.64914 -84.25263 3382 ft 171 kts 270°
2026-05-07 17:22 33.64939 -84.26651 3224 ft 165 kts 270°
2026-05-07 17:22 33.64953 -84.27977 3024 ft 152 kts 268°
2026-05-07 17:23 33.64956 -84.29197 2871 ft 135 kts 267°
2026-05-07 17:23 33.64957 -84.30285 2681 ft 126 kts 267°
2026-05-07 17:23 33.64961 -84.31328 2513 ft 121 kts 268°
2026-05-07 17:23 33.64962 -84.32320 2392 ft 121 kts 266°
2026-05-07 17:24 33.64961 -84.33328 2233 ft 121 kts 268°
2026-05-07 17:24 33.64957 -84.34340 2070 ft 122 kts 268°
2026-05-07 17:24 33.64958 -84.35366 1911 ft 122 kts 268°
2026-05-07 17:24 33.64956 -84.36386 1787 ft 122 kts 268°
2026-05-07 17:25 33.64949 -84.37425 1622 ft 130 kts 271°
2026-05-07 17:25 33.64940 -84.38519 1419 ft 132 kts 274°
2026-05-07 17:25 33.64943 -84.39639 1280 ft 137 kts 274°
2026-05-07 17:25 33.64944 -84.40780 1102 ft 134 kts 274°
2026-05-07 17:26 33.64951 -84.41854 1009 ft 116 kts 274°
2026-05-07 17:26 33.64956 -84.42683 1006 ft 79 kts 269°
2026-05-07 17:26 33.64947 -84.43119 1005 ft 36 kts 258°
2026-05-07 17:26 33.64862 -84.43336 1005 ft 19 kts 243°
2026-05-07 17:27 33.64844 -84.43443 1005 ft 2 kts 266°
2026-05-07 17:27 33.64844 -84.43444 1005 ft 0 kts 266°
2026-05-07 17:27 33.64841 -84.43503 1005 ft 14 kts 259°
2026-05-07 17:28 33.64787 -84.43552 1006 ft 2 kts 209°
2026-05-07 17:28 33.64726 -84.43593 1005 ft 19 kts 208°
2026-05-07 17:28 33.64596 -84.43671 1005 ft 19 kts 179°
2026-05-07 17:28 33.64542 -84.43544 1006 ft 19 kts 91°
2026-05-07 17:29 33.64497 -84.43431 1005 ft 14 kts 167°
2026-05-07 17:29 33.64407 -84.43394 1005 ft 13 kts 175°
2026-05-07 17:29 33.64328 -84.43394 1005 ft 10 kts 179°
2026-05-07 17:29 33.64300 -84.43339 1005 ft 7 kts 90°
2026-05-07 17:30 33.64300 -84.43313 1005 ft 0 kts 90°